RH
5 4 4 4 4 3 3 2 2 2 2 2 2 2 2 2 2 2 2 2 2 2 2 2 2 3 3 2 3 3 2 3 2 2 3 3 3 5 5 7 11 15 21 28 31 32 52 86 104 103 101 105 104 98 98 101 100 100 101 104 103 89 72 64 69 85 101 104 102 102 103 104 102 103
5 4 4 4 4 3 3 2 2 2 2 2 2 2 2 2 2 2 2 2 2 2 2 2 2 2 3 2 2 3 2 2 3 2 2 3 3 3 5 6 7 13 17 23 31 31 33 55 88 106 102 100 102 99 99 103 104 102 99 100 105 96 78 70 68 73 88 104 108 104 102 104 103 102
5 4 4 4 4 3 2 2 2 2 2 2 2 2 2 2 2 2 2 2 2 2 1 2 2 2 2 3 2 2 3 2 2 3 2 3 3 3 4 5 6 9 14 19 26 32 32 34 56 89 102 101 103 101 99 104 106 104 102 99 100 100 92 82 74 70 77 94 106 110 110 106 101 101
5 4 4 4 4 3 2 2 2 2 2 2 2 2 2 2 2 1 2 2 2 2 2 2 2 2 2 3 3 2 3 3 2 3 3 2 3 3 3 4 6 6 10 16 21 27 34 33 35 55 82 101 108 102 98 104 106 102 104 104 98 98 102 97 82 73 74 84 93 102 111 109 102 100
5 4 4 4 3 3 2 2 2 2 2 2 2 2 2 2 2 2 1 2 2 2 2 2 2 2 2 2 3 3 2 3 3 2 3 3 3 3 3 3 5 6 7 11 18 23 29 35 34 36 50 78 103 107 98 99 106 104 103 106 100 95 104 107 96 82 75 80 83 84 92 100 104 104
5 4 4 4 3 3 2 2 2 2 2 2 2 2 2 2 1 2 1 1 2 2 2 2 1 2 2 2 2 3 3 2 3 3 2 3 3 3 3 3 3 5 6 7 12 19 24 30 36 36 35 46 75 101 104 99 103 104 103 106 102 97 103 107 104 95 80 77 81 78 76 79 90 101
5 4 4 4 4 3 2 2 2 3 2 2 2 2 2 2 1 1 2 1 2 2 2 2 2 1 2 2 2 2 3 3 3 3 3 3 3 3 3 3 3 4 5 7 8 13 20 26 32 37 38 34 42 70 97 105 104 100 103 108 103 99 105 106 103 101 91 81 77 75 71 67 72 88
5 5 5 5 4 3 2 2 2 2 3 2 2 2 2 2 2 1 2 2 1 2 2 1 2 2 2 2 2 2 3 3 3 3 3 3 3 3 3 3 4 3 4 6 7 8 14 22 28 33 39 39 33 40 65 93 105 102 101 105 102 100 106 107 104 103 100 91 78 72 72 67 65 77
6 5 5 5 4 3 2 2 2 2 3 2 2 2 2 2 2 1 1 2 1 2 2 2 2 2 2 2 2 3 2 2 3 3 3 3 2 3 3 3 3 4 4 4 6 7 9 15 24 29 34 38 37 33 38 59 88 104 106 104 104 105 104 101 103 104 103 97 84 79 79 67 59 67
6 5 5 5 4 3 2 2 3 2 2 3 2 2 2 2 2 2 1 1 2 2 2 2 2 1 2 2 2 3 3 2 3 3 3 3 3 3 3 3 3 3 4 4 4 6 7 10 16 24 30 34 35 37 36 38 54 82 105 111 107 104 101 99 101 102 103 103 96 92 85 66 56 60
6 4 5 5 4 3 3 2 3 2 2 2 2 2 2 2 2 2 2 1 1 2 2 2 2 2 2 2 2 2 2 2 2 3 3 3 3 3 3 3 4 3 3 4 4 5 6 8 10 16 24 30 32 35 38 39 39 50 78 105 113 109 102 100 102 100 99 103 104 102 90 73 66 62
6 5 5 5 4 3 3 3 2 3 3 2 2 2 2 2 2 1 2 2 1 2 2 2 2 2 2 2 2 2 2 3 2 2 3 3 3 3 3 3 3 3 3 3 4 5 5 6 8 11 16 23 30 33 34 39 41 40 50 74 102 117 111 102 103 102 100 101 105 106 94 81 78 69
5 5 5 5 5 4 3 3 3 2 3 2 2 2 2 2 2 2 1 2 2 2 2 2 2 2 2 1 2 2 2 2 3 2 3 3 3 3 3 3 3 3 4 4 3 4 5 5 6 8 11 15 22 29 32 34 39 43 45 51 69 96 110 111 110 105 100 102 106 107 96 83 81 74
5 4 5 5 5 4 3 3 3 3 3 3 2 2 2 2 2 2 2 1 2 2 1 2 2 2 2 2 1 2 2 2 2 3 2 3 3 3 3 3 3 3 3 4 4 4 4 5 6 6 9 11 15 21 27 32 35 39 46 49 52 65 84 100 110 109 103 103 107 106 98 91 92 87
5 4 5 6 5 4 3 3 3 3 3 3 2 2 2 2 2 2 2 2 2 2 2 2 2 2 2 2 1 2 2 2 2 2 3 3 2 3 3 3 3 3 3 3 4 4 3 4 6 6 7 8 11 14 19 27 33 36 42 49 53 57 63 72 84 94 101 106 108 105 97 96 104 103
6 5 5 6 6 5 3 3 3 3 3 2 2 2 2 2 2 2 2 2 1 2 2 2 2 2 2 2 2 2 2 2 2 2 2 3 3 3 3 3 3 3 3 3 3 4 4 4 4 6 7 7 8 11 14 19 26 31 37 44 51 56 60 62 62 65 74 88 101 107 103 99 104 106
6 5 5 5 6 6 4 3 3 3 3 2 2 3 2 2 2 2 2 2 2 2 2 2 2 2 2 2 1 2 2 2 2 2 2 2 3 3 3 3 3 3 3 3 3 3 3 4 4 4 6 7 7 8 11 14 18 23 30 38 46 51 56 61 61 57 54 58 70 85 95 98 104 109
6 5 5 5 6 6 4 3 3 3 3 3 2 2 2 2 2 2 2 2 2 2 2 2 2 2 2 2 1 2 2 2 2 2 2 2 2 3 3 3 3 3 3 3 3 3 3 3 4 4 4 6 7 8 9 10 13 16 22 29 38 45 50 54 59 61 58 52 50 55 63 74 89 107
7 6 5 5 6 6 4 3 3 3 3 2 3 2 2 2 2 2 2 2 2 2 2 2 2 2 2 2 2 2 2 2 2 2 2 3 2 3 3 3 3 3 3 3 3 3 4 3 3 4 4 5 6 7 8 9 10 12 16 21 27 35 44 50 55 59 60 58 55 51 50 51 58 74
9 7 6 6 6 6 5 3 3 3 3 3 3 2 2 2 2 2 2 2 2 2 2 2 2 2 2 2 2 2 2 2 2 2 2 2 2 3 3 3 3 3 3 3 3 3 4 4 4 4 4 5 5 6 7 8 9 10 11 15 20 25 33 41 49 55 58 59 59 57 55 51 47 47
9 8 6 6 7 6 5 4 3 3 3 3 3 3 2 2 2 2 2 2 2 2 2 2 2 2 2 2 2 2 2 2 2 2 2 2 2 3 3 2 3 3 3 3 3 4 3 3 4 4 4 4 5 6 7 8 9 10 9 11 14 18 23 30 39 47 53 56 58 58 56 53 51 48
10 9 7 7 7 7 5 3 3 3 3 3 3 3 3 2 2 2 2 2 2 2 2 2 2 2 2 2 2 2 2 2 2 2 2 2 2 2 3 3 2 2 3 3 3 3 3 3 4 4 4 4 4 5 6 7 8 9 10 10 11 13 16 21 28 36 44 49 52 54 54 52 51 51
9 9 8 7 8 8 5 3 3 4 3 3 3 3 3 3 2 2 2 2 2 2 2 2 2 2 2 2 2 2 2 2 2 2 2 2 3 3 2 3 3 2 3 3 3 3 3 3 4 4 3 4 4 4 5 6 7 9 9 10 10 11 12 15 20 27 33 41 46 49 50 49 48 49
9 9 8 8 8 8 6 4 4 4 4 3 3 3 3 2 3 2 2 2 2 2 2 2 2 2 2 2 2 2 2 2 2 2 2 2 2 3 3 2 3 3 3 3 3 3 3 3 4 4 4 4 4 4 5 5 6 7 9 10 10 10 11 12 15 19 24 31 38 43 47 46 42 42
10 9 8 8 8 8 6 5 4 4 4 3 3 3 3 2 3 3 2 2 2 2 2 2 2 2 2 2 2 2 2 2 2 2 3 3 2 3 3 3 3 3 3 3 3 3 4 4 4 4 4 4 4 4 4 5 6 6 8 9 10 11 11 11 12 14 18 22 28 35 40 42 39 36
11 9 7 7 8 7 7 6 5 3 3 3 3 3 3 3 3 3 3 2 2 2 2 2 2 2 2 2 2 2 2 2 3 2 2 3 3 3 3 3 3 3 3 3 4 4 4 4 4 4 4 4 4 4 4 4 5 6 7 8 9 11 12 12 12 12 14 17 21 26 32 35 35 32
11 8 7 7 7 7 7 6 4 3 3 3 3 3 3 3 3 3 3 3 2 2 3 3 2 2 2 2 2 2 2 2 2 3 3 3 3 3 3 3 3 3 3 3 4 4 4 4 4 4 4 4 4 4 4 4 5 5 6 7 9 10 11 12 13 13 14 14 16 19 23 27 28 27
12 8 7 7 7 7 7 6 4 3 3 3 3 3 3 3 3 3 3 3 3 3 2 3 3 3 2 3 2 2 3 3 3 3 3 3 3 3 3 3 3 3 3 3 4 4 4 4 4 4 4 4 4 4 4 4 4 5 6 6 8 9 10 12 14 14 15 15 15 16 17 19 21 20
13 9 7 7 7 8 7 6 4 3 4 4 4 3 3 3 3 3 3 3 3 3 3 3 3 3 3 3 3 3 3 3 3 3 3 3 3 3 3 3 3 3 3 3 4 4 4 4 4 4 4 4 5 5 5 5 4 4 5 5 7 8 9 11 13 15 15 15 16 17 17 17 17 16
14 10 8 7 8 8 7 5 4 4 4 4 4 4 3 3 3 3 3 3 3 3 3 3 3 3 3 3 3 3 3 3 3 3 4 4 4 3 3 3 3 4 4 4 4 4 4 4 4 4 5 4 5 5 5 5 5 5 5 5 5 6 8 9 11 14 14 15 16 18 19 19 19 18
14 10 9 8 8 9 9 8 6 4 4 4 4 4 4 3 3 3 3 3 3 3 3 3 3 3 3 3 3 3 3 3 3 3 4 4 4 4 4 4 4 4 4 4 4 4 4 4 4 5 5 5 5 5 5 5 5 5 5 5 5 5 6 7 9 12 13 14 15 18 20 21 21 20
15 11 9 9 9 10 12 13 9 6 5 4 4 4 4 4 3 4 3 3 3 3 3 3 3 3 3 4 4 4 3 3 3 4 4 4 4 4 4 4 4 4 4 4 4 4 4 4 4 4 5 5 4 4 4 4 5 5 5 5 5 5 5 5 6 8 10 12 14 16 19 21 21 21
16 11 9 10 9 10 13 15 13 8 5 5 4 4 4 4 4 4 4 3 3 3 3 3 3 3 3 4 4 4 4 4 4 4 4 4 4 4 4 4 4 4 4 4 4 4 4 4 4 4 4 4 4 4 4 4 5 5 5 5 5 5 5 5 5 6 7 9 11 13 16 18 19 20
16 11 10 10 9 9 11 14 13 9 6 4 5 4 4 4 4 3 4 4 3 3 3 3 3 3 3 4 4 4 4 4 4 4 4 4 4 4 5 5 4 4 4 4 4 4 4 4 4 4 4 4 4 4 4 5 5 5 5 5 5 5 5 5 5 5 5 6 7 9 12 14 16 17
16 12 10 10 9 9 11 12 13 10 7 5 5 5 4 4 4 4 4 4 3 3 3 3 3 3 3 4 4 4 4 4 4 4 4 4 5 5 5 5 5 4 4 4 4 4 4 4 4 4 4 4 4 4 4 4 5 5 5 5 5 5 5 5 5 5 6 6 6 6 7 9 11 13
16 13 11 10 10 9 10 12 13 11 8 5 5 5 4 5 4 4 4 4 4 4 3 3 3 3 3 4 4 4 5 5 4 5 5 4 5 5 5 5 5 5 5 4 4 4 4 4 4 4 4 4 4 4 4 4 4 5 5 5 5 5 5 5 5 6 6 5 6 6 6 6 7 8
17 14 12 11 10 9 9 11 13 14 11 7 5 5 5 5 5 4 4 4 4 4 4 3 4 3 3 4 4 4 5 5 5 5 5 5 5 5 5 5 5 5 5 5 5 5 4 4 4 4 5 5 4 4 5 4 5 5 5 5 6 6 6 6 5 6 6 6 5 6 6 6 7 6
18 15 13 12 10 9 9 10 12 15 14 10 6 5 5 5 5 5 4 4 4 4 4 4 4 4 3 3 4 4 4 5 5 5 5 5 5 5 5 5 5 5 6 5 5 5 5 5 5 4 5 5 5 5 5 5 5 5 5 5 5 6 6 6 6 6 6 6 6 6 6 6 6 6
18 15 13 12 10 9 9 9 11 14 15 13 9 6 5 5 5 5 5 5 4 4 4 4 4 4 4 3 3 4 4 4 5 5 5 5 5 5 6 6 6 6 6 5 5 5 5 5 5 5 5 5 5 5 5 5 5 5 5 6 6 6 6 6 6 6 6 6 6 6 6 6 6 6
18 15 13 13 11 9 9 9 9 11 14 14 12 8 5 5 5 5 5 5 4 4 4 4 4 4 4 4 3 3 4 4 5 5 5 5 5 6 6 6 6 6 6 6 6 6 5 5 5 5 5 5 5 5 5 5 5 5 6 6 6 6 7 6 6 7 6 7 7 6 6 6 6 6
18 15 14 13 11 10 9 9 9 10 12 13 13 10 6 5 5 5 5 5 5 5 4 4 4 4 4 4 4 3 4 4 4 5 5 5 6 6 6 6 6 6 6 6 6 5 5 5 5 5 5 5 5 6 6 6 6 6 6 6 6 6 7 6 7 7 7 6 7 7 6 6 6 6
19 16 14 13 11 10 10 9 10 11 11 12 12 11 8 6 5 5 5 5 5 5 4 4 4 4 4 4 4 4 4 4 4 4 5 5 6 6 6 6 6 6 6 6 6 5 5 5 5 5 6 5 5 6 6 6 6 6 6 7 7 7 7 7 7 7 7 7 7 7 7 6 6 6
20 16 15 14 12 10 10 10 10 11 12 13 13 11 9 8 6 5 5 5 5 5 5 5 4 4 4 4 4 4 4 4 4 4 4 5 5 6 6 6 6 6 6 6 6 5 5 5 5 5 5 5 6 6 6 6 7 7 7 7 7 7 7 7 7 7 7 7 7 7 7 6 6 6
20 17 16 16 14 11 10 10 11 12 13 14 14 13 10 8 7 6 5 5 5 5 5 5 4 4 4 4 4 4 4 4 4 4 4 4 5 5 6 6 6 7 7 7 6 6 5 5 5 5 5 6 5 6 6 7 7 7 7 7 8 7 7 7 7 7 7 7 6 7 7 6 6 6
19 17 17 16 15 12 11 10 11 12 14 15 15 14 12 9 7 6 5 5 5 5 5 5 5 5 4 4 4 5 4 4 4 4 4 4 4 5 5 6 6 7 7 7 7 7 6 6 5 5 5 6 6 6 6 7 7 7 8 7 8 8 8 8 8 7 7 7 6 6 6 6 6 7
Wind_Speed
64 63 62 60 58 54 49 47 45 42 38 35 35 34 33 33 34 36 42 48 49 49 53 59 65 71 76 81 87 92 99 106 112 116 121 128 134 140 147 155 164 172 178 182 184 185 188 190 190 189 187 185 181 175 166 158 156 158 161 164 168 169 167 165 163 160 156 154 152 149 147 147 146 144
64 63 62 60 57 53 49 46 44 41 38 35 34 33 33 33 33 34 38 43 48 51 54 57 63 69 74 79 85 90 95 102 109 113 118 123 129 135 142 149 157 166 174 179 182 184 185 188 190 190 188 186 184 179 171 163 158 158 159 162 165 167 167 166 165 163 161 159 157 155 153 151 148 145
63 63 62 59 56 52 48 45 42 40 37 34 33 32 32 32 32 33 35 38 45 52 53 55 59 65 71 76 81 87 92 98 105 111 115 119 125 131 137 144 151 160 169 176 180 182 183 184 188 190 190 187 185 182 176 170 165 162 161 161 162 163 165 167 168 166 165 164 163 161 159 156 151 147
63 63 61 57 55 51 47 44 42 39 37 35 32 31 31 32 31 32 33 35 42 51 54 53 56 62 68 73 78 83 88 94 100 106 112 116 121 126 132 139 146 154 162 171 177 181 182 183 184 187 190 189 186 184 180 175 171 167 164 163 162 161 162 167 170 170 169 168 168 167 165 161 155 150
63 62 59 57 54 51 47 44 42 39 38 36 34 31 30 31 31 31 31 33 38 47 53 53 55 59 65 70 75 80 85 90 95 102 109 114 118 122 128 134 141 148 156 165 173 178 180 182 182 183 186 188 188 186 183 180 176 170 166 164 163 160 161 167 172 172 172 172 171 171 169 164 159 153
63 62 59 57 55 51 47 44 42 40 39 37 35 33 30 30 31 30 30 31 35 42 50 53 53 56 62 67 72 78 82 87 92 97 104 111 115 118 123 130 136 143 150 158 167 174 178 180 181 181 183 185 188 188 186 183 179 173 167 165 164 160 160 168 174 174 174 174 174 173 171 166 161 155
63 62 60 57 55 52 48 44 42 40 39 38 36 35 32 29 29 30 29 30 32 38 46 51 52 54 59 64 69 75 80 84 89 94 100 106 112 116 119 125 132 139 145 152 160 168 175 179 180 181 181 182 185 187 187 185 182 177 170 164 162 161 162 167 174 175 175 175 174 174 173 168 162 158
63 63 60 57 56 52 48 45 42 40 39 38 36 34 33 30 28 29 29 28 30 34 41 48 51 51 55 61 66 72 77 82 87 91 97 102 108 113 117 121 126 134 141 147 154 161 169 175 179 180 181 181 182 183 185 185 184 181 174 166 160 159 163 168 172 173 174 175 175 175 174 170 164 160
63 62 59 57 55 52 48 45 42 40 38 39 37 34 33 31 29 28 28 27 28 31 37 43 48 50 53 58 64 69 74 80 85 89 94 99 104 109 114 117 122 128 136 143 149 155 162 170 176 179 180 182 181 180 181 182 183 183 180 173 164 160 163 167 170 171 172 173 174 174 174 172 168 164
62 61 59 57 55 53 49 46 43 40 38 37 37 35 33 31 29 27 27 27 27 29 33 40 46 50 52 56 61 66 71 77 83 87 91 96 100 106 111 115 118 123 130 138 145 150 156 163 171 177 180 181 181 179 178 179 181 182 183 181 174 168 166 166 167 168 169 170 172 174 175 174 172 167
62 60 58 56 55 52 50 47 44 42 39 37 35 34 33 31 29 27 26 26 26 28 31 37 44 49 51 54 58 63 69 75 80 85 89 93 97 102 107 112 115 119 124 132 140 146 151 157 164 172 177 180 180 179 179 178 178 180 182 184 183 179 175 172 169 167 165 166 169 174 176 176 174 170
60 59 57 55 54 52 50 48 45 42 41 38 35 32 31 29 28 26 25 25 25 26 29 34 42 48 51 53 56 60 66 73 78 83 87 91 94 99 103 108 112 116 119 126 134 141 147 152 158 165 172 176 179 180 179 179 178 178 180 184 186 186 184 181 177 172 167 164 165 172 177 177 176 173
59 58 56 55 54 52 50 48 45 43 41 39 36 33 30 28 26 25 24 23 23 24 28 33 40 47 51 52 54 58 63 70 75 79 84 88 92 96 100 105 109 113 116 121 128 136 143 148 153 158 165 170 175 179 179 179 178 178 179 181 185 188 189 188 186 181 175 170 167 171 175 176 176 175
59 57 55 54 54 52 50 47 45 43 40 37 35 33 30 27 25 24 22 22 22 23 27 33 40 46 50 51 52 55 60 66 72 76 81 86 90 93 96 101 105 110 113 117 123 130 138 145 150 154 159 164 170 175 178 178 179 179 179 181 182 185 188 190 190 188 184 179 176 175 176 174 173 174
59 57 55 54 54 53 51 48 45 42 39 36 34 31 29 27 24 23 21 21 21 22 26 32 38 44 48 50 50 52 57 63 68 73 78 84 88 91 94 98 102 107 111 115 119 125 132 140 146 150 155 159 164 169 174 177 179 180 180 181 182 184 186 189 191 191 189 186 184 183 181 176 172 171
59 57 55 53 53 53 52 49 45 41 38 35 33 31 28 26 23 22 20 20 19 21 25 30 36 42 47 49 50 51 54 59 65 69 75 80 85 89 92 96 100 105 109 113 116 120 125 133 141 147 151 155 159 163 168 173 177 180 181 182 183 184 185 187 188 189 189 188 187 188 187 183 177 172
58 57 55 53 53 53 52 48 44 41 38 35 32 30 28 25 22 21 19 19 19 20 24 30 35 40 45 47 48 50 52 56 61 66 71 77 81 86 90 94 98 102 106 110 113 116 120 126 134 141 147 151 155 158 162 167 173 177 180 182 183 184 185 186 187 187 187 186 187 188 189 187 183 178
57 57 55 53 53 53 52 48 44 41 38 35 31 29 26 23 21 19 18 18 18 20 24 29 34 38 42 45 47 48 51 54 59 64 69 74 79 83 88 92 96 99 102 106 109 112 115 120 127 134 141 147 151 154 157 162 166 171 176 180 182 184 185 185 185 186 186 185 185 186 187 187 185 182
56 56 55 53 52 52 51 48 44 41 38 35 32 28 25 23 20 19 17 17 18 20 23 28 33 37 40 43 45 47 49 52 56 61 66 71 76 81 85 90 93 95 98 102 106 108 111 115 120 127 134 141 146 150 153 157 161 165 170 175 179 182 183 184 184 185 185 184 183 184 185 186 184 182
55 56 55 54 52 51 49 47 43 40 38 36 32 29 25 23 20 18 17 17 17 19 22 27 31 35 38 41 43 45 48 50 53 58 62 67 72 77 82 87 89 91 94 98 101 104 108 112 116 121 128 136 142 146 150 153 156 160 164 168 174 178 180 182 183 184 184 184 183 183 185 186 184 180
53 55 55 54 53 51 49 46 42 40 38 36 33 29 26 23 20 18 16 16 17 18 21 25 30 34 37 39 41 43 46 48 50 54 58 62 67 73 79 83 85 87 91 94 97 102 106 109 113 118 123 129 136 142 146 149 152 156 159 162 166 171 175 178 181 183 183 183 183 184 185 186 184 178
51 53 54 53 53 51 48 45 42 40 39 36 33 29 26 23 21 18 16 16 16 17 20 24 28 32 35 37 39 41 43 45 47 50 54 58 63 69 74 78 81 83 86 89 93 98 102 105 110 114 118 122 128 135 141 145 148 151 154 157 160 164 167 172 176 179 181 182 182 183 184 184 182 178
50 52 53 52 52 51 48 44 42 41 39 36 31 28 25 23 20 18 16 15 15 17 20 23 26 29 33 35 37 38 40 43 44 46 50 54 59 64 69 73 75 78 81 84 89 93 97 102 106 110 113 117 121 127 135 140 144 147 149 152 154 157 160 164 169 173 177 179 180 181 182 182 180 177
49 50 51 51 51 49 47 45 43 41 38 34 30 27 24 22 20 18 16 14 14 16 18 21 24 27 29 32 34 36 38 40 42 43 46 51 55 60 65 68 70 72 75 80 84 89 93 98 102 106 109 112 116 121 127 133 138 142 145 147 149 152 155 158 161 165 170 173 176 177 178 179 179 177
49 50 49 49 49 48 46 44 43 40 36 32 28 26 24 22 19 17 16 14 14 15 17 20 22 24 26 29 31 33 35 37 39 41 43 47 51 56 60 63 66 68 71 76 81 85 89 94 98 102 106 109 112 115 120 125 131 136 140 143 145 147 150 152 155 158 162 165 169 172 174 176 177 175
49 49 48 47 47 46 45 43 41 37 34 31 28 25 24 22 19 17 16 14 13 14 16 18 20 22 24 26 27 29 32 34 37 39 40 43 47 52 56 60 64 67 70 73 78 82 86 90 94 97 101 105 108 111 114 118 124 129 134 138 141 143 145 147 149 151 154 157 161 165 168 171 173 172
49 48 47 46 46 45 44 42 39 35 32 31 28 26 24 22 20 18 16 14 13 13 14 17 19 20 22 23 24 26 29 31 34 36 38 41 44 48 53 57 61 65 69 71 74 78 82 86 89 93 96 99 103 107 110 113 116 121 126 132 136 139 141 142 144 146 148 151 154 157 161 164 166 166
49 48 47 46 45 45 43 41 38 35 33 32 30 27 25 23 21 19 17 15 13 12 13 15 17 19 20 21 22 24 26 29 31 34 36 38 41 44 49 53 58 62 65 69 72 75 78 82 86 89 92 95 98 102 105 108 110 114 119 124 129 134 137 139 141 142 144 146 148 151 154 157 159 159
49 48 47 46 46 46 44 40 38 36 34 33 32 30 27 24 22 19 17 16 14 12 12 13 16 18 19 20 21 22 25 27 29 32 34 36 39 42 46 50 54 58 61 65 70 74 77 80 83 87 89 91 95 98 100 103 106 109 112 117 122 128 132 136 139 141 142 142 144 145 147 149 151 152
48 48 47 45 45 46 45 42 39 37 35 34 33 31 28 25 22 20 18 17 15 13 12 12 14 16 18 19 21 22 24 26 28 31 32 34 37 40 44 47 52 56 60 64 68 71 75 77 81 84 87 90 92 95 97 100 103 105 108 111 115 121 126 131 136 139 140 140 140 141 143 144 145 145
47 46 46 45 45 46 47 46 43 40 37 34 33 31 29 26 23 20 18 17 16 14 12 12 13 15 17 19 20 21 23 25 27 30 32 33 35 38 41 45 50 54 59 63 67 70 73 76 79 82 85 88 91 93 95 97 100 102 105 107 110 114 118 124 130 134 137 138 138 139 140 141 141 140
45 44 44 44 44 44 46 47 45 42 38 35 32 31 29 27 24 21 18 16 16 15 13 12 12 13 16 18 20 21 22 25 27 29 31 33 34 37 40 44 48 52 57 61 65 69 73 76 79 82 84 86 89 91 92 94 96 98 100 103 106 108 112 116 121 127 132 135 136 137 138 138 138 137
43 42 42 42 42 42 42 43 43 41 37 33 31 29 28 27 25 22 19 16 15 15 14 13 11 12 14 17 19 21 22 24 26 28 30 32 34 36 38 42 45 50 54 58 62 67 71 75 78 80 82 84 86 87 88 89 91 93 96 98 101 104 106 109 113 117 123 127 131 133 135 137 137 136
42 41 40 40 40 40 40 40 41 40 36 32 30 28 27 26 25 23 21 17 15 14 15 14 12 12 13 16 18 20 22 24 25 27 29 31 33 34 37 40 44 48 52 56 60 64 67 70 72 74 76 78 81 83 84 86 88 90 92 94 96 99 101 104 106 109 113 118 123 127 130 133 134 134
41 40 39 39 38 39 38 38 39 38 36 33 29 27 26 25 25 23 22 19 16 14 14 14 14 12 13 15 17 19 22 24 25 26 28 30 32 34 36 38 42 46 50 54 58 60 63 65 66 68 70 72 75 78 81 83 85 87 88 90 92 95 97 100 102 104 107 110 114 118 123 127 129 130
40 39 39 38 38 37 37 37 37 37 36 33 29 27 25 24 24 23 22 20 18 15 13 14 14 14 13 14 16 18 20 23 25 26 27 29 31 33 35 38 40 44 47 51 54 57 59 61 62 64 65 68 71 74 77 79 82 83 85 86 88 91 93 95 97 100 102 104 107 110 113 118 122 125
39 39 38 38 38 37 37 36 36 37 37 34 30 27 25 23 23 23 21 20 19 17 14 13 14 14 14 14 15 17 19 22 24 26 27 28 30 32 35 37 39 41 44 47 50 53 55 57 59 60 62 65 67 70 73 75 78 80 81 83 84 87 89 91 93 95 98 100 102 103 105 109 114 118
39 38 38 38 38 38 37 36 35 35 36 35 32 28 25 23 22 22 22 20 19 18 16 14 13 14 14 15 15 16 18 20 23 25 26 28 29 31 34 36 38 40 42 44 47 50 52 54 56 57 59 61 64 67 69 72 75 77 78 79 81 83 85 87 89 91 94 96 98 98 99 102 107 112
38 37 37 37 37 38 38 37 35 34 34 35 34 30 26 23 21 21 21 20 19 18 17 16 14 13 14 15 15 16 18 20 22 23 25 27 29 30 33 35 38 40 42 44 46 48 51 52 54 55 57 59 61 63 66 68 71 73 75 76 78 79 81 83 86 88 90 93 94 95 96 98 101 105
37 36 36 36 36 37 38 37 36 35 34 33 33 32 28 24 22 20 20 20 20 19 18 17 16 14 13 14 15 16 17 19 21 23 24 26 28 30 32 34 37 40 42 44 46 48 50 51 53 54 56 57 58 60 63 65 68 70 72 73 75 76 78 81 83 85 87 89 91 92 92 93 96 99
36 35 35 35 35 36 37 38 37 36 34 33 32 32 30 26 22 20 19 19 19 19 18 17 17 16 14 14 15 16 17 18 20 22 24 25 27 29 31 33 35 38 42 45 47 48 50 51 53 54 55 56 57 59 60 63 66 67 69 70 72 74 76 78 79 81 83 85 87 89 90 91 93 95
35 34 34 34 34 35 37 38 38 37 36 34 33 32 31 29 25 21 19 18 18 19 19 18 17 17 16 15 15 16 17 18 20 21 23 25 27 28 30 31 33 36 40 43 46 48 50 51 52 54 55 56 57 58 60 62 64 66 67 68 70 71 73 74 76 78 80 82 85 87 88 89 90 92
35 34 33 33 33 34 36 37 38 38 37 36 34 33 31 30 28 24 21 18 17 18 18 18 18 17 17 17 16 16 17 18 19 21 23 25 26 28 29 30 32 34 37 40 44 47 49 51 52 54 55 56 57 58 60 61 63 64 65 66 67 69 70 71 73 76 78 81 83 85 86 86 88 89
35 34 33 32 32 33 35 37 38 39 38 37 36 34 32 30 28 26 24 20 18 17 17 18 18 18 18 18 18 17 17 18 19 21 22 24 26 28 29 30 32 33 36 38 41 44 48 50 52 54 55 57 58 59 60 61 62 63 64 65 66 67 68 69 71 74 76 79 81 82 83 84 85 86
34 33 33 33 32 33 34 36 37 38 39 39 38 36 34 32 29 27 25 23 20 17 16 17 18 18 18 18 18 18 18 18 19 20 22 24 25 27 29 31 32 33 35 37 39 42 45 48 51 53 55 57 58 59 60 61 62 63 63 64 65 66 67 68 70 72 74 76 77 79 80 81 82 83
Wind_Direction
326 326 325 324 323 322 321 317 313 310 305 298 291 284 276 267 256 245 242 243 241 235 228 225 222 221 220 219 218 218 217 216 215 215 216 216 215 214 214 214 214 214 213 213 214 214 214 215 215 216 217 217 218 219 220 221 223 224 224 225 227 227 226 226 226 225 225 225 225 225 225 226 227 228
327 327 326 324 323 323 321 317 313 309 304 300 294 287 278 269 259 248 241 240 241 237 230 226 223 221 220 220 218 217 217 216 215 215 215 216 216 215 214 214 214 214 214 213 214 214 214 215 215 216 217 218 218 219 219 220 221 223 224 224 226 227 226 226 226 226 226 226 226 226 226 226 226 227
328 327 326 324 324 324 322 318 313 309 305 301 296 289 281 272 262 252 243 235 237 239 234 227 225 223 221 220 220 218 217 217 216 215 215 216 216 216 215 214 214 214 214 214 214 214 214 215 215 216 217 217 218 218 219 219 221 222 223 224 225 226 227 227 227 227 226 227 227 226 226 226 226 227
329 328 326 324 324 324 323 319 316 312 309 305 299 292 284 275 265 255 246 235 232 237 236 229 224 224 222 220 220 219 218 217 216 216 215 215 216 216 216 215 214 214 214 214 214 214 214 215 215 216 216 217 218 219 218 219 221 222 223 225 225 226 227 227 227 227 227 227 227 227 227 227 227 227
329 327 326 326 326 326 324 321 319 316 312 309 303 296 287 278 269 259 249 238 231 234 237 232 224 222 222 220 219 219 219 218 217 216 215 215 215 216 216 215 214 214 214 214 214 214 215 215 215 216 217 217 217 219 218 219 221 222 223 224 226 225 227 228 227 226 227 228 228 228 228 228 227 227
329 328 328 328 328 327 326 323 321 319 315 311 306 299 291 281 272 263 252 242 232 232 236 234 227 221 221 221 219 218 218 218 217 216 216 215 215 215 216 216 215 214 214 214 214 215 215 215 215 216 217 217 217 218 219 219 220 222 223 224 225 225 227 229 229 227 226 228 228 229 229 229 228 228
330 330 330 329 329 328 327 325 323 321 317 313 308 302 295 285 275 267 257 245 235 231 233 235 230 223 220 220 219 217 216 217 217 217 216 215 215 214 215 216 216 215 214 214 214 215 215 215 216 216 217 217 217 217 218 219 219 221 222 223 224 225 226 229 230 228 226 227 229 230 230 230 229 229
332 331 330 330 330 329 328 326 324 323 319 314 309 303 297 289 280 271 261 250 238 231 231 234 233 226 221 220 218 217 216 215 215 216 216 215 215 214 214 215 216 216 215 214 214 214 215 215 216 216 217 218 217 217 217 218 219 220 222 222 223 224 225 228 231 231 229 227 228 230 231 230 229 229
332 331 331 331 331 330 329 327 325 324 321 316 311 305 298 291 284 275 265 254 241 231 229 232 233 228 222 220 218 216 216 215 214 214 215 215 215 214 214 214 214 215 215 215 214 214 214 215 216 216 217 218 218 217 217 218 219 220 221 222 222 223 225 227 229 231 231 229 228 229 231 231 230 229
332 331 331 331 331 331 330 328 327 325 323 318 312 307 300 293 286 278 268 257 243 232 226 228 231 229 223 219 217 216 215 215 213 213 214 215 215 214 213 213 213 214 215 215 215 214 214 214 215 216 217 218 218 218 217 217 218 219 220 222 223 223 224 226 228 230 231 231 229 229 230 231 231 230
332 332 332 332 332 333 331 330 328 326 324 319 313 306 301 294 287 279 270 259 246 234 226 225 229 230 225 220 217 215 215 214 213 213 213 213 214 214 213 213 213 213 214 215 215 215 214 214 215 216 217 218 218 218 218 217 218 219 220 221 223 224 224 225 227 228 230 231 231 230 230 231 231 231
333 332 333 333 334 334 333 331 329 327 325 321 315 308 301 295 289 281 271 261 249 237 228 224 227 230 227 222 217 214 214 214 213 212 212 212 213 213 213 213 212 212 213 214 215 215 215 214 214 215 216 217 218 219 219 218 218 218 220 221 222 224 225 226 227 228 229 230 232 232 231 230 231 231
333 333 334 335 335 335 334 332 329 328 325 321 316 310 303 297 291 283 273 262 250 239 231 225 224 227 228 224 218 213 213 214 213 212 212 212 211 212 213 212 212 212 212 213 214 215 215 215 215 215 216 217 218 219 219 219 219 219 220 221 222 224 225 227 228 228 228 229 231 233 233 232 231 231
333 334 336 336 337 336 334 333 330 328 326 322 317 312 306 300 293 286 276 264 252 242 233 227 224 226 227 226 221 215 212 214 214 211 211 212 211 211 212 212 212 212 211 212 213 214 215 215 215 215 215 216 217 218 219 219 219 219 220 221 223 224 225 227 228 229 229 229 230 233 235 234 233 232
334 335 337 338 338 337 335 333 330 328 326 322 318 313 307 302 297 289 278 267 255 244 236 230 226 226 227 227 223 217 213 213 213 212 210 211 212 210 210 211 212 211 211 211 212 213 214 215 215 215 215 216 216 217 218 219 220 220 220 221 223 224 225 227 228 229 229 230 231 232 234 235 235 234
334 336 337 339 339 338 335 332 330 328 327 324 320 315 309 304 299 291 281 269 258 246 237 231 227 224 226 226 223 219 214 212 212 212 210 211 212 210 209 210 211 211 211 211 212 212 213 214 215 215 215 215 216 217 218 219 219 220 220 221 223 224 225 227 228 229 230 230 231 232 234 234 235 235
335 336 338 339 341 339 335 332 330 329 328 326 322 316 311 307 302 294 283 272 260 248 238 231 228 225 224 225 223 219 215 212 211 211 210 210 211 211 210 210 210 211 211 212 212 212 212 213 214 215 215 215 216 216 217 218 219 220 220 221 222 224 225 226 228 229 230 230 231 232 233 234 234 235
336 337 338 339 341 340 335 332 331 330 330 328 324 318 312 309 305 297 285 274 262 250 239 232 229 226 225 224 223 220 216 212 210 210 210 209 209 210 211 211 211 211 211 211 212 212 212 213 214 215 215 216 216 216 217 218 219 219 220 221 222 223 225 226 228 229 230 231 231 232 233 234 234 234
337 337 338 339 341 340 336 333 332 331 331 329 326 321 317 313 310 301 288 276 265 253 242 234 230 228 226 224 223 221 218 214 210 209 210 209 208 209 210 212 212 211 210 211 212 211 212 213 214 215 215 216 216 216 217 217 218 219 220 221 222 223 224 226 227 229 230 231 232 232 233 234 234 233
339 338 338 339 341 340 337 334 332 332 332 330 328 325 321 318 314 306 293 279 268 257 246 238 232 230 227 225 224 222 220 217 213 210 209 209 208 208 210 212 212 211 210 211 211 211 211 212 213 214 215 216 217 217 217 217 218 219 220 221 222 223 224 225 227 228 230 231 232 233 234 234 234 233
341 339 338 339 340 340 338 334 333 334 334 331 329 327 323 321 318 310 298 283 272 261 250 241 235 232 230 227 225 223 222 220 215 211 210 210 209 209 210 212 212 211 211 210 210 211 211 212 212 214 214 216 216 217 217 217 218 219 220 220 221 222 223 224 226 227 229 230 232 233 234 235 236 235
342 340 339 338 339 340 338 335 335 336 335 332 329 327 325 322 319 314 302 287 275 264 253 244 238 234 232 229 227 225 224 222 218 213 211 210 210 210 211 212 212 211 211 210 210 211 211 211 212 213 214 215 216 217 217 218 218 219 220 220 221 222 223 224 225 227 228 230 231 233 234 235 236 236
344 342 339 338 339 340 338 338 338 337 334 330 329 328 325 322 320 316 306 292 279 267 257 248 241 237 234 232 230 228 226 224 221 215 211 210 210 211 212 212 212 212 211 211 210 211 211 211 212 214 215 215 215 216 217 218 218 219 219 220 221 222 223 224 225 226 227 229 231 232 234 235 236 237
344 342 339 338 339 340 340 341 340 336 331 329 329 329 327 324 322 319 311 296 282 271 261 253 245 240 237 235 233 231 229 226 223 218 213 210 210 210 211 212 212 211 211 211 211 211 211 212 212 214 215 215 216 216 217 217 218 219 219 220 221 222 223 223 224 225 227 228 230 231 233 235 236 237
344 342 339 338 339 340 343 343 339 333 329 330 331 332 330 326 323 322 316 302 286 274 265 257 249 243 239 237 235 233 231 229 226 222 216 212 210 210 211 211 210 210 209 210 210 211 211 212 212 213 214 215 216 217 217 217 218 218 219 220 220 221 222 223 224 225 226 227 229 230 232 234 236 237
343 340 339 339 338 340 344 344 337 331 330 333 335 336 334 329 326 324 320 309 292 277 268 261 253 245 240 238 236 234 233 232 229 225 219 215 212 210 210 210 209 208 207 208 209 210 211 212 212 213 214 215 216 217 218 218 218 218 219 220 220 221 222 223 223 224 225 226 228 229 231 233 235 236
341 339 338 339 339 341 344 343 337 333 334 337 339 340 338 333 329 326 323 315 299 281 271 264 256 248 242 238 236 234 233 232 230 227 222 217 213 211 210 210 209 208 207 206 207 209 210 212 212 213 214 215 216 217 217 218 218 218 219 219 220 221 221 222 223 224 224 225 226 228 229 231 233 235
340 338 338 339 340 342 344 343 340 339 339 340 341 342 341 337 331 327 324 319 307 287 273 266 259 251 243 238 235 233 232 231 230 228 224 219 214 211 211 210 210 209 208 206 206 207 209 211 212 213 213 214 215 216 217 218 218 219 219 219 220 221 221 221 222 223 224 224 225 227 228 230 231 233
339 338 338 340 341 341 342 344 344 344 344 343 343 342 342 339 333 328 325 320 312 296 277 266 259 252 244 237 232 230 229 228 227 225 224 220 215 211 210 210 210 209 208 207 206 207 208 209 210 212 213 213 214 215 216 217 218 218 219 219 219 220 221 221 222 223 224 224 225 226 227 228 230 232
339 338 338 340 342 342 342 345 348 348 346 345 343 341 341 340 335 330 325 321 315 304 285 269 259 253 246 238 232 229 227 226 225 223 221 219 217 212 209 209 209 208 207 207 207 207 208 209 210 211 212 213 214 215 215 216 217 217 218 218 219 220 220 221 221 222 223 224 224 225 226 228 229 230
338 338 338 340 343 344 344 345 347 349 347 345 342 340 339 339 337 332 326 321 316 308 293 274 261 253 248 240 232 228 227 226 224 222 219 217 215 213 210 208 208 208 207 207 207 207 207 208 210 211 212 213 213 214 215 215 216 217 217 218 218 219 220 220 221 222 223 224 224 224 225 227 228 229
338 338 339 341 344 347 347 345 345 347 347 344 341 339 338 337 336 333 328 322 316 309 299 283 265 253 248 242 234 228 226 226 224 221 219 216 213 212 210 209 208 208 209 209 209 208 208 209 210 210 212 213 214 214 215 215 216 216 217 218 218 219 219 220 221 222 223 224 224 224 225 226 227 228
338 338 339 341 344 346 347 345 343 344 345 344 341 339 337 336 335 334 330 324 316 309 302 290 273 255 246 242 237 230 226 226 225 223 220 217 214 211 210 209 208 208 209 210 210 210 211 211 212 212 212 213 213 214 215 216 216 217 218 218 219 219 220 220 220 221 222 223 224 224 225 226 227 228
338 339 340 341 343 344 346 346 343 342 344 344 342 340 338 336 335 333 331 326 319 310 303 294 281 262 248 241 238 233 228 225 225 225 222 218 215 212 210 209 209 209 209 210 211 212 213 214 215 215 215 215 214 214 214 215 216 217 218 219 219 220 220 220 221 221 222 223 224 224 225 225 226 227
338 339 340 341 342 343 345 346 344 342 343 345 344 342 340 337 335 333 331 327 321 313 303 296 287 272 254 243 237 234 231 227 224 225 224 221 217 213 210 209 210 211 211 211 212 213 214 215 216 217 217 217 217 216 215 215 216 217 218 219 219 220 220 221 221 221 222 222 223 224 224 225 226 226
339 339 339 339 340 342 344 347 347 344 343 345 346 344 341 339 336 333 331 327 322 316 307 297 289 279 264 249 239 234 232 230 226 224 223 223 220 216 212 210 210 212 213 214 214 215 215 216 216 217 217 218 218 218 217 217 217 217 218 219 219 220 221 221 221 222 222 222 223 223 224 225 226 226
339 340 339 339 339 340 344 348 349 347 344 344 346 345 343 340 337 334 331 327 322 317 310 300 289 282 272 259 246 236 232 230 229 226 223 222 222 220 217 213 211 212 213 215 216 217 216 216 217 217 217 217 218 218 218 218 218 218 218 219 220 220 221 222 222 222 223 223 223 223 223 224 225 225
340 340 340 338 338 339 342 347 351 351 347 344 345 346 345 342 339 335 332 328 323 318 312 304 293 282 275 266 255 243 234 230 229 228 225 222 221 221 220 217 214 212 212 213 215 216 217 217 217 217 217 218 218 218 218 219 219 219 219 219 220 220 221 222 222 222 223 224 224 224 223 223 224 224
340 340 340 338 337 338 341 345 349 352 351 347 344 345 346 345 341 337 333 329 325 319 313 306 298 286 276 269 261 251 241 233 229 228 227 225 222 221 221 220 217 214 213 212 213 215 216 217 217 216 217 217 218 218 219 219 220 220 220 220 220 221 221 221 222 222 223 224 224 224 224 223 224 223
339 340 339 338 337 338 339 342 347 351 352 350 346 344 345 346 344 340 335 331 326 321 314 308 301 292 280 271 263 256 247 239 232 228 227 226 224 222 221 221 220 217 214 213 213 214 214 215 216 216 216 216 217 218 219 219 220 221 221 221 221 221 221 221 221 222 222 223 224 225 224 224 224 224
339 340 339 338 337 337 338 341 345 348 351 352 350 346 344 345 345 342 338 333 328 322 316 310 303 296 287 276 266 258 252 246 238 231 227 226 225 224 222 222 222 221 218 216 214 214 214 214 214 215 215 215 215 216 217 218 220 221 221 221 221 221 221 221 221 222 222 222 223 224 224 223 224 224
339 340 340 338 337 337 338 340 343 346 349 351 351 349 345 344 344 343 340 335 329 324 318 312 304 298 292 283 272 262 255 249 244 237 231 227 225 224 224 223 222 223 223 221 218 216 215 215 214 214 214 214 214 215 216 217 219 220 221 221 222 222 221 221 221 221 221 222 222 223 223 223 223 223
338 340 341 339 338 338 338 340 342 345 347 349 350 350 348 345 342 342 340 337 332 326 319 313 306 299 293 287 279 269 259 252 247 242 237 232 227 224 223 223 223 223 224 224 223 221 218 217 215 214 214 214 214 214 215 216 218 219 220 221 221 222 222 221 221 221 221 221 222 222 223 222 222 222
338 340 341 341 340 339 339 340 342 343 346 347 348 349 348 346 343 340 339 337 333 328 321 315 308 301 294 289 283 275 266 257 250 245 241 237 232 227 223 222 223 223 224 224 225 225 223 221 218 216 215 214 214 214 215 216 217 218 219 220 221 221 221 221 221 221 221 221 222 222 222 222 221 221
338 340 342 341 341 340 339 340 341 343 344 345 347 347 347 346 344 341 338 335 333 329 322 316 310 304 297 290 284 279 272 264 256 249 243 240 237 233 227 224 222 222 223 224 225 226 226 225 223 220 218 216 216 215 215 216 216 217 219 220 220 221 221 221 222 222 222 222 222 222 222 222 222 221